Vorticity
7 5 4 3 3 2 2 2 2 2 3 2 3 4 5 5 4 5 7 5 1 2 2 1 2 1 2 4 5 6 6 6 9 12 12 10 12 13 10 8 7 4 1 4 7 10 10 9 12 9 6 1 -2 6 4 1 5 2 1 7 11 8 5 4 7 7 2 5 6 5 5 5 5 4 5 5 4 5 5 5 4 4 5 4 4 4 5 2
10 7 5 4 4 3 2 2 2 2 3 3 1 3 5 5 4 4 6 6 3 2 2 2 1 -0 1 2 4 6 6 6 7 11 14 13 12 12 10 8 11 6 2 5 4 8 10 9 10 2 -1 1 7 11 -1 -2 7 8 4 4 7 2 3 7 9 11 5 5 7 7 7 7 6 4 4 5 4 4 3 4 4 4 4 3 4 4 5 5
13 10 7 5 4 4 3 2 2 2 2 3 1 1 4 5 4 3 5 6 5 2 1 3 1 -0 1 1 3 4 5 8 6 9 16 16 12 11 12 9 12 9 4 5 4 6 8 8 2 -3 4 4 8 5 -5 6 5 7 9 -1 4 6 5 7 5 9 6 5 9 9 10 9 6 3 5 6 3 5 5 4 4 5 4 3 5 5 4 4
14 14 10 7 5 4 4 3 2 2 2 2 2 1 2 4 5 3 4 6 6 4 1 2 2 1 0 0 3 2 5 9 5 7 15 16 13 11 12 11 12 11 8 6 5 5 5 10 3 3 8 -6 -1 1 -6 7 -6 -2 16 3 5 9 5 9 8 10 9 6 8 9 10 8 6 6 5 4 3 5 7 6 6 6 6 4 5 4 3 3
11 15 14 10 7 6 5 4 3 2 2 2 2 2 1 2 5 4 4 5 6 5 2 2 3 2 -0 0 3 1 4 8 4 7 13 14 13 11 11 14 11 11 11 5 6 5 2 8 9 11 6 -10 4 7 -3 4 -5 2 16 -0 -1 5 4 10 12 11 10 6 6 7 8 7 7 7 5 5 6 6 7 8 7 7 7 6 5 4 3 3
7 12 16 14 10 7 6 5 4 3 2 2 3 3 1 1 3 5 4 4 5 6 5 2 2 2 0 0 2 1 2 4 3 7 13 13 13 13 12 13 13 12 10 6 5 4 3 5 10 9 1 2 9 4 4 5 -1 8 12 2 3 7 8 10 10 11 11 7 5 5 6 10 10 8 9 9 9 10 10 8 8 8 8 6 5 4 4 3
5 7 13 16 14 10 7 6 5 5 4 2 2 3 2 1 2 4 4 3 4 6 7 3 2 3 1 0 2 2 -0 1 2 5 11 13 13 14 13 13 13 13 8 7 5 4 5 1 6 8 -0 10 7 -0 11 3 -1 12 10 5 6 9 10 10 12 10 9 6 5 6 6 10 11 10 10 9 11 12 10 9 7 8 9 8 7 6 5 5
5 5 7 13 17 14 9 7 6 5 5 4 2 3 3 2 1 3 5 4 3 5 7 5 2 2 2 1 2 1 -0 3 1 3 9 12 14 13 14 14 13 13 8 7 6 4 6 -0 5 4 -6 7 8 7 14 -3 2 16 9 7 7 9 11 9 11 6 4 7 8 9 9 10 9 9 10 9 11 11 9 8 5 7 8 8 9 8 7 6
5 5 5 8 14 17 14 9 7 6 6 5 3 3 4 3 1 2 5 5 3 3 6 7 4 2 3 1 2 2 2 2 -1 1 7 11 14 12 11 15 14 12 7 7 7 4 4 2 0 -7 -5 12 10 9 8 -4 10 17 6 6 4 5 9 10 8 3 3 7 8 7 7 10 8 7 9 9 9 10 10 8 6 7 6 6 8 8 9 8
6 6 5 5 8 14 17 13 9 8 7 6 4 4 4 4 3 2 4 5 4 3 5 7 6 3 2 1 1 3 5 3 -1 1 5 10 14 12 11 14 15 11 9 8 6 5 4 3 2 2 17 21 6 5 4 -1 7 10 6 4 3 3 6 10 7 4 4 3 6 6 6 10 7 6 9 10 9 9 9 9 9 8 7 7 7 8 9 9
7 6 7 6 6 9 15 16 12 9 9 7 4 5 5 5 4 3 4 5 4 3 4 7 7 4 2 2 0 2 5 4 1 -0 2 9 13 13 12 13 14 10 10 8 4 7 4 5 9 8 15 16 5 -1 1 9 5 2 8 3 3 6 5 10 7 5 5 1 3 6 10 13 6 3 7 10 8 8 9 8 9 8 8 8 7 8 8 9
10 7 6 7 7 6 10 15 15 11 10 9 6 5 6 5 5 4 4 5 5 4 4 5 7 6 3 2 0 1 3 4 2 -1 0 7 12 13 12 12 13 9 10 9 6 7 3 6 5 -3 6 15 10 -1 0 19 12 1 7 4 4 6 4 8 6 6 6 2 7 8 11 13 7 3 4 5 5 6 8 8 7 7 8 8 7 8 7 9
14 9 7 7 8 7 7 11 16 14 11 11 8 5 6 6 5 5 4 5 5 4 4 4 7 7 5 2 1 1 1 3 4 0 -1 5 11 13 12 10 11 10 11 10 7 6 3 4 1 -1 11 5 -6 9 14 9 5 1 4 4 4 3 4 5 4 7 4 3 10 9 7 10 10 6 1 -1 2 4 6 8 8 8 9 8 7 7 7 9
19 13 9 7 7 8 8 9 12 15 13 11 11 8 6 6 6 6 5 6 6 5 4 4 5 7 7 4 2 2 0 2 3 1 -1 3 10 12 12 11 8 9 11 11 11 7 2 3 3 5 13 3 -12 7 17 2 5 6 1 6 7 2 1 2 4 6 3 2 8 6 0 8 14 9 4 0 1 3 3 6 8 10 11 8 6 7 7 8
22 18 12 8 7 7 8 9 10 13 14 12 12 10 7 6 7 6 6 6 6 5 4 4 5 7 9 4 1 2 1 1 2 2 -0 1 9 12 12 11 8 8 10 13 13 8 5 3 5 5 7 14 4 -0 8 8 8 4 1 7 7 3 -4 -2 7 7 4 1 5 8 -3 -1 11 11 8 3 1 3 3 4 6 10 10 7 7 6 6 8
23 23 17 10 8 7 7 9 10 11 13 12 12 12 9 7 7 7 6 6 6 5 4 4 5 6 8 6 3 3 1 1 1 3 2 0 7 11 11 10 7 7 8 12 10 6 10 -1 -2 14 9 7 9 0 2 7 3 2 9 8 2 4 -2 -2 6 4 5 2 4 15 8 2 7 10 11 6 3 3 3 4 5 9 10 6 5 6 7 7
20 24 23 14 8 8 7 8 10 11 12 12 11 11 11 8 7 7 6 7 7 6 5 4 5 7 8 8 7 4 2 1 0 3 4 0 4 10 11 11 9 8 6 10 9 6 11 -2 -6 20 16 2 8 3 -2 5 5 3 9 7 3 3 -2 2 7 3 6 5 4 10 8 5 4 6 10 7 6 5 2 4 4 7 9 5 4 6 7 6
18 22 25 21 11 7 8 8 9 10 11 13 12 11 11 9 8 8 7 8 6 6 5 3 6 5 4 5 5 4 3 1 -1 1 4 2 4 9 9 9 9 9 6 7 10 6 8 2 -3 12 13 6 9 4 -1 2 2 3 8 7 6 5 1 4 4 2 5 3 5 5 -3 -2 5 8 6 4 7 5 2 3 4 6 7 5 5 6 6 6
17 19 24 25 17 8 7 9 9 10 11 13 13 11 10 10 9 8 8 7 5 7 6 5 5 2 3 5 4 5 4 2 1 1 4 3 2 7 9 8 8 8 7 6 7 7 7 5 2 8 11 9 8 4 5 1 -3 10 12 1 6 11 5 4 -0 2 7 3 4 6 0 1 9 11 5 4 6 5 4 3 4 4 5 6 6 5 5 6
15 18 22 26 23 12 6 9 10 9 11 12 14 13 11 10 9 9 9 7 6 7 6 6 5 4 7 9 7 8 5 4 3 1 3 4 2 6 8 8 8 7 8 7 5 6 6 5 6 10 11 11 10 5 4 -0 -1 17 16 0 11 16 4 2 0 -0 4 6 7 5 3 5 6 7 4 4 4 4 5 4 4 3 2 6 6 5 4 5
11 17 21 25 27 17 6 9 11 9 10 11 13 14 12 10 9 8 8 8 8 6 6 7 6 5 6 7 9 8 3 3 3 1 3 4 3 5 7 7 9 9 8 8 7 5 6 8 7 10 11 10 15 12 1 -4 -3 9 13 6 8 6 5 8 3 2 3 6 9 2 2 4 1 4 4 4 6 5 3 2 6 6 2 4 5 5 5 3
6 13 19 24 29 22 8 7 12 11 10 10 12 13 13 12 10 8 8 10 8 6 7 7 6 7 6 8 10 6 3 3 2 1 3 3 3 5 7 7 11 10 6 7 7 5 9 12 8 11 10 1 10 12 -1 4 10 3 6 12 5 -1 9 12 -1 2 9 8 7 2 5 6 1 6 5 3 8 4 1 2 4 8 6 3 5 4 3 2
5 8 15 22 28 27 12 5 13 13 10 10 10 12 12 13 13 9 8 11 10 7 7 7 7 7 7 7 7 7 7 5 3 2 2 3 3 5 6 8 11 7 5 9 6 3 9 14 13 12 2 -2 13 12 -2 12 19 3 2 10 8 6 10 6 -9 -7 6 11 10 6 11 9 3 9 7 3 8 4 2 4 2 7 9 4 5 6 3 1
6 6 10 18 26 30 17 4 11 16 11 10 10 11 11 12 14 11 8 10 11 8 7 8 8 8 9 7 6 8 6 4 5 3 2 3 3 6 7 8 9 6 7 12 7 5 8 11 15 10 0 7 19 15 7 12 8 4 9 6 6 5 -2 3 4 -0 7 11 6 6 11 9 2 4 7 5 8 7 5 4 3 5 7 6 6 5 4 3
7 6 7 13 22 30 22 4 8 17 14 10 10 11 10 10 14 12 9 10 11 10 9 9 8 8 9 8 7 8 6 4 4 3 3 3 3 7 7 6 9 8 8 9 7 9 7 5 11 9 5 13 16 9 6 5 -1 6 14 3 3 2 -7 10 18 2 6 11 6 5 5 5 3 2 8 8 4 6 6 3 5 5 3 6 7 5 4 4
8 7 7 10 17 28 26 7 5 16 15 12 12 11 9 10 13 12 9 10 13 12 10 9 8 9 10 9 10 7 6 6 3 4 4 1 4 6 5 7 8 9 8 7 8 8 5 6 10 11 8 8 10 6 3 6 3 4 10 4 3 3 -2 13 15 -1 3 10 8 11 8 6 7 6 9 8 1 3 4 2 3 2 2 6 6 6 6 4
9 8 7 9 14 24 26 12 5 14 16 13 14 11 10 11 10 12 11 8 14 15 10 10 9 10 10 8 10 8 6 7 4 5 4 2 4 1 2 6 4 7 7 6 9 1 3 16 13 9 8 4 7 7 6 10 3 -1 10 13 11 8 -2 -2 5 11 16 12 8 9 8 4 3 5 8 5 5 6 5 6 4 -0 3 9 8 4 5 7
11 10 8 9 13 21 25 15 5 12 17 13 14 13 11 11 9 12 11 6 15 17 8 9 8 10 14 7 8 11 8 8 7 6 5 4 4 2 6 9 6 8 4 10 16 -1 2 22 15 7 6 4 9 13 12 4 -3 2 6 4 7 6 1 -2 2 11 9 2 3 3 6 10 3 3 8 5 6 6 -0 4 8 4 1 4 7 6 4 7
12 11 10 8 13 19 22 16 5 11 19 14 14 15 12 11 10 12 10 3 13 17 8 10 8 7 15 10 6 10 7 7 7 7 6 4 4 3 4 8 9 6 5 19 20 1 2 11 9 10 10 12 10 8 13 -1 -2 22 9 -12 -3 2 8 14 8 7 4 4 10 3 4 13 7 10 20 12 5 6 4 6 8 7 3 3 6 6 5 5
13 12 11 9 13 17 18 16 7 9 18 14 13 16 13 12 11 12 12 3 9 16 10 10 10 7 12 12 8 8 7 7 5 5 5 6 8 2 -2 5 9 5 11 19 1 -8 11 9 1 5 5 13 8 -5 10 -0 -8 28 26 -1 7 12 13 15 7 7 7 8 15 11 10 14 10 12 14 6 5 8 6 5 6 6 4 6 7 4 6 5
13 12 12 10 13 16 15 14 10 10 17 15 13 16 14 13 12 10 10 8 11 18 14 10 11 9 9 12 11 9 11 10 5 3 2 4 6 3 4 8 6 0 4 5 -14 -10 22 16 -2 -1 -7 4 12 -2 7 3 -12 14 23 9 14 11 5 9 7 6 5 1 6 14 19 15 10 10 4 1 11 21 18 5 2 9 5 4 8 6 7 7
14 13 14 12 12 14 14 12 11 11 15 14 12 16 14 13 15 10 5 11 15 14 15 14 12 9 9 12 13 11 11 10 7 6 5 6 5 5 9 6 4 4 -2 -0 -3 -2 22 21 1 2 -2 1 16 7 4 6 1 10 12 7 10 1 0 14 11 3 7 10 12 16 17 7 2 10 12 2 -5 10 32 20 2 7 5 3 9 8 6 8
13 13 13 14 12 11 12 12 11 11 14 14 11 15 14 11 15 10 -0 9 21 18 19 22 15 8 10 13 10 10 10 10 10 9 8 8 6 7 9 4 6 11 5 8 8 -0 14 21 3 2 4 1 11 8 3 8 7 12 11 2 5 1 -2 10 11 2 4 9 13 15 12 5 0 4 12 11 -3 -7 5 6 1 4 2 3 9 7 6 10
13 13 12 14 12 10 10 11 11 12 13 13 11 14 15 11 13 10 -6 -7 14 23 17 18 18 9 9 13 12 10 8 9 8 5 10 10 4 7 10 6 5 9 12 11 6 5 13 8 -3 7 10 1 10 9 4 11 8 11 14 -0 3 10 -2 -2 9 9 7 11 14 6 -5 -0 7 6 5 13 19 8 -7 -6 8 12 7 7 10 9 9 9
12 11 12 13 12 11 11 10 11 13 13 11 11 13 14 13 12 12 1 -15 6 36 23 9 17 13 7 8 13 14 7 10 13 4 7 10 4 7 9 7 4 4 14 10 -2 5 10 -6 -5 22 19 1 14 13 -3 9 10 3 14 7 1 8 1 0 9 8 7 12 11 5 4 15 22 16 8 9 15 14 6 7 13 11 8 8 7 9 11 7
12 10 12 12 11 12 11 10 10 12 14 10 9 12 13 17 13 9 11 -9 -8 33 37 16 14 13 11 7 9 16 6 7 16 9 7 9 6 8 8 9 4 -7 1 8 3 6 11 1 -2 14 14 0 16 14 -7 13 17 -3 13 18 4 8 7 4 8 6 10 9 -5 -2 13 19 16 12 17 21 14 8 11 13 14 11 8 8 8 10 12 9
12 9 10 10 11 14 11 11 10 11 15 9 7 12 12 21 15 -1 13 10 -11 8 31 31 24 13 12 9 7 19 13 3 9 9 9 11 7 6 8 11 8 -2 -0 8 8 5 8 12 1 -3 4 3 11 9 -5 13 15 -2 19 24 6 9 4 1 13 12 15 19 3 2 12 9 8 7 4 3 -1 5 15 12 11 13 9 7 9 8 9 10
13 8 9 10 11 14 13 12 9 11 15 8 7 13 11 21 15 -10 9 23 -6 -12 7 20 31 25 13 5 5 17 15 7 10 6 6 13 9 5 9 9 7 10 11 6 5 5 7 12 4 0 7 4 6 7 3 11 -1 -14 12 19 6 6 -4 -2 19 12 5 13 11 10 13 10 12 11 6 11 17 23 25 12 5 10 10 7 5 5 9 10
14 8 8 10 10 13 14 12 11 11 12 9 8 12 13 16 5 -10 12 22 -7 -7 4 -7 7 32 23 1 4 20 14 5 13 10 2 10 12 8 10 7 7 16 10 -12 -13 12 29 17 3 16 26 14 10 8 6 12 -2 -21 -8 4 8 12 5 3 12 10 4 5 7 10 10 12 21 21 19 26 20 7 8 9 5 7 10 7 3 3 8 9
14 9 8 12 11 13 14 12 12 11 10 13 11 11 18 15 -5 -10 15 19 -2 10 20 -13 -16 28 38 5 -2 25 26 5 9 18 9 7 11 14 14 3 1 18 13 -22 -40 -5 35 16 -5 20 27 10 13 12 6 13 8 -3 -5 -4 1 7 6 6 8 11 8 1 4 10 5 5 13 9 -4 -11 -18 -19 -2 12 8 5 8 8 8 6 7 9
13 11 8 10 10 11 13 12 13 13 11 16 15 8 15 18 5 -1 11 15 4 10 18 -6 -25 4 36 22 -2 14 34 15 3 13 11 6 6 10 14 2 -7 9 20 -1 -33 -25 13 7 -10 7 5 -0 19 18 11 14 6 7 13 2 -1 1 -1 1 5 7 4 1 7 11 8 8 6 0 -10 -17 -13 -3 7 10 6 7 9 9 10 8 6 7
10 13 9 10 11 9 12 13 12 15 14 15 16 9 9 14 13 7 6 11 11 10 14 6 -16 -22 4 23 6 1 25 27 13 9 3 4 7 6 15 11 -3 -0 8 11 -2 -18 -7 0 -3 -0 -7 9 37 22 11 18 0 -0 18 13 5 5 3 5 7 8 7 5 5 4 5 9 7 8 9 9 14 13 8 6 6 6 6 7 9 7 5 6
7 12 8 9 13 9 10 12 11 14 15 16 16 11 7 11 15 13 8 10 13 12 13 9 -4 -22 -20 5 11 3 10 19 23 18 3 3 5 3 21 22 3 1 -0 1 9 -0 -8 -3 4 4 -8 4 31 20 9 14 -2 -9 5 11 11 5 1 3 2 5 9 8 10 11 9 8 7 8 8 13 18 12 6 5 4 3 4 6 8 7 6 6
6 9 8 6 10 9 8 12 13 14 16 18 17 11 7 10 18 19 10 7 9 11 14 12 4 -5 -8 4 8 1 3 11 23 20 2 6 8 -4 15 25 4 3 8 -1 2 7 5 -3 -4 4 1 -2 10 15 12 9 1 -4 -6 1 12 6 0 5 -0 -3 1 -3 -2 5 6 4 4 4 4 9 10 5 3 7 6 6 6 5 7 8 5 2
8 7 9 7 7 9 10 9 9 10 13 18 17 13 10 10 17 20 8 5 10 6 7 12 9 3 7 13 -1 -18 -11 7 22 20 -3 -1 14 1 1 17 7 -2 7 6 2 10 22 14 -2 -1 3 -2 -5 -0 10 14 12 9 -3 -8 5 8 4 7 2 -1 6 4 -4 -4 3 6 4 7 11 13 15 10 5 7 9 9 10 8 9 11 6 0
11 8 8 9 8 9 10 7 7 10 13 17 17 13 13 11 16 21 9 4 13 13 6 8 11 5 5 18 12 -11 -14 -8 -1 17 15 -4 2 14 10 9 4 -5 0 8 -2 -7 6 15 12 10 5 0 -2 -5 2 13 16 16 8 -4 1 8 7 5 2 0 8 17 11 4 9 8 -0 2 5 9 18 13 -0 2 9 9 9 6 6 11 10 4
9 10 5 8 9 8 9 8 8 11 11 15 17 14 13 11 12 20 14 2 6 13 11 8 12 10 2 10 20 8 6 3 -21 -7 31 17 -6 19 36 20 7 4 4 8 -1 -12 -4 5 10 17 9 -3 -2 0 6 16 16 13 16 14 11 9 5 5 7 2 -3 2 4 4 13 14 5 3 -1 -5 2 0 -7 0 6 4 6 4 2 8 11 7
4 10 6 7 10 8 9 8 7 9 8 10 15 14 13 10 8 16 17 9 5 6 8 8 8 11 7 6 14 8 10 22 -5 -30 1 15 -6 7 31 20 10 11 7 8 8 1 6 6 -4 3 11 5 0 -1 2 11 15 11 11 14 14 13 9 5 8 10 5 1 -2 -1 5 8 8 7 3 -0 1 2 4 6 2 1 7 8 5 7 9 9
-0 6 9 7 9 8 5 5 10 14 10 11 16 16 15 12 10 16 15 8 9 7 7 11 7 7 11 5 11 16 7 13 17 -5 -13 -3 -6 1 16 12 6 7 2 5 11 6 5 6 -0 3 14 17 15 9 2 1 7 12 10 6 6 11 12 9 6 6 7 4 1 4 4 2 3 2 2 5 5 4 6 6 1 2 6 8 10 12 13 12
2 4 9 7 8 10 6 3 9 14 12 13 16 16 19 16 11 16 15 6 9 10 6 11 8 6 12 4 2 17 13 3 15 18 4 -4 -7 -4 6 10 8 8 6 5 7 6 3 2 6 8 5 4 9 15 14 3 -6 -1 6 6 6 4 4 9 9 5 6 6 5 6 5 3 -1 -4 -3 2 4 5 6 7 7 6 6 9 13 14 15 14
8 5 9 7 6 9 10 6 6 9 9 11 14 12 15 18 14 16 16 6 5 9 6 7 8 7 13 12 3 5 9 8 14 18 13 6 1 -3 1 7 7 7 12 9 3 5 8 5 3 0 -5 -3 -2 -1 5 4 -2 0 1 1 5 4 2 4 4 0 4 9 3 -5 -3 3 1 -0 5 7 7 6 3 3 7 8 9 13 13 11 13 12
12 7 10 10 7 7 11 9 6 7 7 7 13 13 10 16 18 16 17 11 3 6 8 8 9 9 9 13 12 3 -2 2 11 15 15 13 10 4 2 9 12 9 12 16 11 9 10 6 4 1 2 8 7 3 11 15 11 10 6 2 5 7 9 13 12 7 6 6 3 -2 2 8 3 1 6 2 -4 -2 -1 4 10 11 13 17 16 13 13 11
Height
5902 5903 5903 5904 5905 5906 5907 5909 5910 5911 5912 5913 5914 5915 5916 5916 5917 5918 5918 5919 5920 5920 5920 5920 5920 5920 5920 5920 5919 5919 5919 5919 5919 5919 5919 5919 5919 5919 5920 5921 5922 5923 5924 5926 5927 5927 5928 5928 5929 5929 5929 5930 5931 5931 5932 5932 5933 5932 5935 5940 5942 5942 5939 5938 5938 5936 5935 5935 5935 5934 5933 5933 5933 5933 5932 5932 5931 5931 5930 5930 5929 5929 5929 5928 5928 5928 5927 5928
5900 5900 5901 5902 5903 5904 5905 5907 5908 5909 5910 5911 5912 5913 5914 5915 5916 5916 5917 5918 5919 5920 5920 5920 5920 5920 5920 5920 5920 5919 5919 5919 5919 5919 5919 5919 5919 5919 5920 5920 5922 5923 5924 5926 5927 5928 5928 5929 5929 5930 5930 5930 5931 5932 5933 5933 5933 5933 5938 5942 5942 5941 5939 5937 5937 5936 5936 5935 5935 5935 5934 5934 5933 5933 5933 5932 5932 5931 5930 5930 5929 5929 5929 5929 5929 5929 5929 5928
5897 5898 5899 5900 5901 5902 5904 5905 5906 5907 5909 5910 5911 5912 5913 5914 5914 5915 5916 5917 5918 5919 5919 5920 5920 5920 5920 5920 5920 5919 5919 5919 5919 5919 5919 5919 5919 5919 5920 5920 5921 5923 5924 5925 5927 5928 5928 5929 5929 5930 5931 5931 5932 5933 5934 5934 5935 5935 5940 5943 5941 5939 5938 5938 5937 5936 5936 5935 5935 5935 5935 5934 5934 5933 5933 5932 5932 5932 5931 5930 5930 5930 5929 5929 5929 5929 5929 5929
5895 5896 5897 5898 5899 5900 5901 5903 5904 5905 5907 5908 5909 5910 5911 5912 5913 5914 5915 5916 5917 5918 5918 5919 5919 5920 5920 5920 5920 5919 5919 5919 5919 5919 5919 5919 5919 5919 5920 5920 5921 5922 5924 5925 5927 5928 5928 5929 5929 5931 5931 5932 5935 5934 5935 5935 5936 5938 5940 5942 5940 5939 5938 5938 5937 5936 5936 5936 5936 5936 5935 5935 5934 5934 5933 5933 5932 5932 5932 5931 5930 5930 5930 5929 5930 5930 5930 5930
5893 5894 5895 5896 5897 5898 5899 5900 5902 5903 5904 5906 5907 5909 5910 5910 5911 5912 5914 5915 5916 5916 5917 5918 5919 5919 5920 5920 5920 5919 5919 5918 5918 5919 5919 5919 5919 5919 5920 5920 5921 5922 5924 5925 5927 5927 5928 5929 5930 5931 5931 5934 5937 5936 5937 5936 5936 5939 5939 5939 5940 5939 5938 5937 5937 5936 5936 5936 5936 5936 5935 5935 5934 5934 5933 5933 5932 5932 5932 5931 5931 5930 5930 5930 5930 5930 5930 5930
5891 5892 5892 5893 5894 5895 5897 5898 5899 5900 5902 5903 5905 5907 5908 5909 5910 5911 5912 5913 5914 5915 5916 5917 5918 5919 5919 5919 5919 5919 5919 5918 5918 5918 5919 5919 5919 5919 5919 5920 5921 5922 5923 5924 5926 5927 5929 5929 5930 5932 5932 5936 5940 5939 5940 5938 5937 5940 5938 5938 5939 5938 5938 5937 5937 5936 5936 5937 5937 5936 5936 5935 5934 5934 5933 5933 5932 5932 5932 5932 5931 5930 5930 5930 5930 5930 5930 5930
5888 5889 5890 5891 5892 5893 5894 5896 5897 5898 5899 5901 5902 5904 5906 5907 5908 5909 5911 5912 5913 5914 5915 5916 5917 5918 5918 5919 5919 5919 5919 5918 5918 5918 5918 5918 5918 5919 5919 5920 5921 5922 5923 5924 5926 5927 5928 5929 5931 5932 5933 5938 5941 5943 5942 5938 5939 5941 5939 5938 5938 5938 5938 5937 5937 5937 5937 5937 5937 5937 5936 5935 5935 5934 5933 5933 5933 5932 5932 5932 5931 5930 5930 5930 5930 5930 5930 5931
5885 5886 5888 5888 5889 5890 5892 5893 5894 5895 5896 5898 5900 5902 5903 5905 5906 5908 5909 5910 5911 5913 5913 5914 5916 5917 5917 5918 5918 5919 5918 5918 5918 5918 5918 5918 5918 5919 5919 5920 5921 5922 5923 5924 5925 5927 5928 5929 5931 5932 5935 5939 5941 5942 5940 5939 5942 5941 5938 5939 5938 5938 5937 5937 5937 5937 5937 5937 5937 5937 5937 5936 5935 5934 5933 5933 5933 5933 5932 5932 5931 5931 5931 5930 5930 5930 5931 5931
5882 5883 5885 5886 5887 5888 5889 5890 5892 5893 5894 5895 5897 5899 5901 5902 5904 5906 5907 5909 5910 5911 5912 5913 5914 5915 5916 5917 5918 5918 5918 5918 5918 5918 5918 5918 5918 5919 5919 5920 5921 5921 5922 5924 5925 5927 5928 5929 5931 5932 5936 5940 5940 5939 5939 5940 5942 5939 5938 5939 5938 5938 5937 5938 5938 5938 5938 5937 5937 5937 5936 5936 5935 5935 5934 5934 5934 5933 5933 5932 5932 5932 5931 5931 5931 5931 5931 5931
5879 5880 5881 5883 5884 5885 5886 5887 5889 5890 5891 5893 5894 5896 5898 5900 5902 5903 5905 5907 5908 5909 5910 5911 5913 5914 5915 5916 5917 5917 5917 5918 5918 5918 5918 5918 5918 5919 5919 5919 5920 5921 5922 5924 5925 5926 5927 5929 5931 5932 5934 5937 5938 5940 5940 5942 5940 5938 5939 5939 5938 5938 5938 5938 5938 5938 5938 5938 5938 5937 5936 5936 5936 5936 5935 5935 5934 5934 5933 5933 5933 5932 5932 5932 5931 5931 5931 5931
5876 5877 5878 5879 5881 5882 5883 5884 5886 5887 5889 5890 5891 5893 5895 5897 5899 5901 5903 5905 5906 5907 5908 5910 5911 5913 5914 5915 5916 5917 5917 5917 5917 5917 5918 5918 5918 5919 5919 5920 5920 5921 5922 5923 5925 5926 5927 5928 5930 5932 5934 5936 5938 5940 5942 5942 5939 5938 5939 5938 5938 5938 5938 5938 5938 5939 5939 5938 5938 5938 5937 5937 5937 5936 5935 5935 5934 5934 5933 5933 5933 5932 5932 5932 5931 5932 5931 5931
5873 5874 5875 5876 5877 5879 5880 5882 5883 5884 5886 5887 5889 5890 5892 5894 5896 5898 5901 5902 5904 5905 5907 5908 5909 5911 5913 5914 5915 5916 5916 5917 5917 5917 5917 5918 5918 5918 5919 5919 5920 5921 5922 5923 5924 5926 5927 5928 5929 5931 5934 5936 5939 5940 5939 5939 5938 5938 5938 5938 5938 5938 5938 5938 5938 5939 5939 5939 5939 5938 5937 5937 5937 5937 5936 5935 5934 5934 5933 5933 5933 5932 5932 5932 5932 5931 5931 5931
5869 5871 5872 5873 5873 5875 5877 5878 5880 5881 5883 5884 5886 5888 5889 5891 5893 5895 5898 5900 5902 5903 5905 5906 5908 5909 5911 5913 5914 5915 5915 5916 5917 5917 5917 5917 5917 5918 5918 5919 5920 5920 5921 5922 5924 5925 5927 5928 5928 5929 5931 5935 5939 5938 5937 5937 5937 5937 5938 5938 5938 5938 5939 5938 5939 5939 5939 5939 5939 5938 5937 5937 5938 5938 5936 5935 5934 5933 5933 5933 5933 5933 5933 5932 5932 5932 5931 5931
5866 5867 5869 5870 5870 5871 5873 5874 5876 5878 5880 5881 5884 5885 5886 5888 5890 5892 5895 5897 5899 5901 5902 5904 5905 5907 5909 5912 5913 5914 5915 5915 5916 5916 5916 5917 5917 5917 5918 5919 5919 5920 5921 5922 5923 5925 5926 5927 5928 5929 5930 5934 5937 5936 5935 5936 5936 5937 5938 5938 5939 5939 5939 5939 5939 5939 5939 5939 5938 5938 5937 5937 5937 5938 5937 5935 5934 5933 5933 5933 5933 5933 5933 5932 5932 5932 5931 5931
5863 5864 5866 5867 5868 5868 5869 5870 5872 5875 5877 5879 5881 5882 5884 5886 5887 5889 5892 5894 5896 5898 5900 5902 5904 5906 5907 5909 5910 5912 5914 5914 5915 5916 5916 5916 5917 5917 5917 5918 5919 5920 5921 5922 5923 5924 5926 5927 5928 5929 5930 5931 5933 5934 5935 5935 5936 5937 5937 5938 5939 5941 5940 5939 5939 5939 5939 5938 5938 5937 5937 5937 5937 5937 5936 5935 5934 5934 5934 5934 5933 5933 5933 5933 5932 5932 5932 5931
5860 5861 5863 5864 5865 5866 5866 5867 5868 5871 5873 5875 5878 5879 5881 5883 5885 5887 5889 5891 5893 5895 5897 5899 5901 5903 5905 5907 5909 5910 5912 5913 5914 5915 5915 5915 5916 5916 5917 5917 5918 5919 5920 5921 5923 5924 5925 5927 5927 5928 5930 5931 5932 5934 5935 5935 5936 5937 5937 5938 5939 5941 5941 5939 5939 5939 5939 5939 5938 5937 5937 5937 5937 5936 5936 5935 5935 5934 5934 5934 5933 5933 5933 5933 5933 5932 5932 5931
5858 5858 5859 5861 5862 5863 5864 5864 5865 5866 5869 5872 5874 5876 5878 5880 5882 5884 5886 5888 5890 5892 5895 5897 5899 5901 5904 5906 5907 5908 5910 5912 5913 5914 5914 5915 5915 5915 5916 5916 5917 5919 5920 5921 5922 5923 5925 5926 5927 5927 5929 5930 5931 5934 5937 5937 5936 5936 5937 5939 5938 5940 5941 5939 5939 5939 5939 5939 5938 5938 5937 5937 5936 5936 5936 5935 5935 5935 5934 5934 5933 5933 5933 5933 5933 5932 5932 5932
5855 5855 5856 5857 5859 5860 5861 5862 5862 5863 5865 5867 5870 5873 5875 5877 5879 5881 5883 5885 5887 5890 5891 5894 5896 5898 5899 5901 5903 5906 5908 5910 5911 5912 5913 5914 5914 5915 5915 5916 5916 5917 5919 5920 5921 5923 5925 5926 5926 5927 5928 5929 5930 5934 5938 5939 5938 5937 5938 5939 5938 5939 5940 5939 5939 5938 5939 5939 5938 5939 5938 5936 5936 5936 5936 5935 5935 5935 5934 5934 5933 5933 5933 5934 5933 5932 5932 5932
5853 5852 5853 5854 5856 5857 5858 5859 5859 5860 5861 5863 5866 5869 5872 5874 5876 5878 5880 5883 5885 5886 5888 5891 5893 5893 5895 5898 5900 5903 5906 5908 5909 5911 5912 5913 5913 5914 5914 5915 5915 5916 5918 5919 5920 5922 5923 5925 5925 5926 5927 5929 5930 5934 5939 5942 5942 5940 5940 5940 5939 5938 5939 5939 5938 5938 5938 5939 5938 5938 5937 5936 5936 5936 5936 5935 5935 5935 5935 5934 5933 5933 5933 5933 5933 5933 5932 5932
5850 5850 5850 5851 5852 5854 5855 5856 5857 5858 5859 5860 5862 5864 5867 5871 5872 5874 5877 5880 5882 5883 5885 5888 5889 5891 5894 5896 5898 5901 5904 5906 5907 5908 5910 5911 5912 5912 5913 5913 5914 5915 5916 5917 5919 5920 5922 5923 5924 5925 5927 5928 5930 5933 5937 5943 5945 5943 5942 5942 5941 5939 5938 5938 5938 5937 5938 5938 5938 5937 5936 5936 5936 5936 5935 5935 5935 5935 5935 5934 5933 5933 5932 5932 5932 5933 5933 5932
5848 5847 5847 5848 5849 5850 5852 5853 5854 5855 5856 5857 5859 5860 5863 5866 5868 5871 5874 5876 5878 5881 5882 5884 5886 5888 5891 5893 5896 5899 5901 5902 5905 5906 5908 5909 5910 5911 5911 5912 5913 5914 5915 5916 5918 5919 5920 5922 5923 5925 5926 5928 5930 5931 5935 5939 5941 5941 5941 5943 5943 5941 5938 5938 5937 5937 5938 5938 5937 5937 5936 5935 5935 5935 5935 5935 5935 5934 5934 5934 5933 5933 5932 5932 5932 5932 5932 5932
5845 5845 5845 5845 5845 5847 5849 5850 5851 5852 5853 5855 5857 5857 5859 5862 5865 5868 5871 5873 5875 5878 5880 5881 5883 5886 5888 5891 5893 5895 5897 5900 5902 5904 5905 5907 5908 5909 5910 5911 5912 5913 5914 5915 5916 5917 5919 5920 5922 5924 5925 5928 5930 5930 5932 5933 5934 5937 5940 5942 5944 5944 5941 5938 5936 5936 5937 5937 5936 5936 5936 5935 5934 5934 5934 5934 5934 5934 5933 5933 5933 5933 5932 5932 5932 5932 5932 5932
5842 5842 5842 5842 5842 5844 5846 5847 5848 5849 5850 5852 5854 5855 5855 5858 5861 5864 5867 5870 5872 5875 5877 5879 5880 5883 5885 5888 5890 5892 5895 5898 5900 5902 5903 5905 5907 5908 5909 5910 5911 5912 5912 5914 5915 5916 5919 5920 5921 5923 5924 5927 5928 5929 5930 5931 5932 5934 5939 5942 5944 5946 5944 5939 5936 5935 5936 5936 5935 5935 5935 5934 5933 5933 5933 5933 5933 5933 5933 5933 5932 5932 5932 5931 5931 5931 5931 5931
5840 5839 5839 5839 5840 5840 5842 5844 5845 5846 5847 5849 5851 5852 5853 5854 5856 5860 5864 5867 5869 5872 5875 5876 5878 5880 5883 5885 5887 5890 5892 5895 5897 5899 5901 5903 5904 5906 5907 5908 5909 5910 5911 5913 5914 5916 5918 5919 5920 5921 5923 5924 5925 5927 5928 5929 5932 5933 5936 5940 5942 5945 5944 5940 5938 5935 5934 5935 5934 5934 5934 5933 5932 5931 5932 5932 5931 5932 5931 5931 5931 5931 5931 5931 5931 5930 5930 5930
5837 5837 5836 5836 5837 5837 5839 5841 5842 5843 5844 5846 5848 5850 5851 5852 5853 5856 5860 5864 5867 5870 5871 5874 5876 5878 5880 5882 5884 5887 5889 5891 5894 5896 5898 5900 5902 5904 5905 5906 5907 5909 5910 5912 5913 5915 5917 5917 5918 5920 5922 5923 5923 5926 5927 5928 5932 5934 5934 5936 5941 5945 5943 5941 5939 5933 5932 5933 5933 5933 5933 5932 5930 5929 5930 5931 5930 5930 5930 5930 5930 5930 5930 5930 5930 5930 5929 5929
5833 5834 5833 5833 5834 5834 5836 5838 5839 5840 5841 5843 5845 5847 5849 5849 5851 5854 5858 5861 5864 5866 5868 5871 5874 5876 5878 5880 5882 5883 5886 5888 5891 5893 5895 5897 5899 5901 5903 5904 5906 5907 5909 5910 5912 5914 5915 5915 5917 5918 5920 5921 5922 5924 5926 5927 5931 5935 5934 5933 5937 5942 5941 5941 5940 5932 5931 5933 5932 5931 5931 5930 5929 5927 5928 5929 5929 5929 5928 5928 5928 5928 5928 5928 5928 5929 5928 5928
5830 5830 5830 5830 5831 5831 5832 5835 5836 5837 5839 5840 5842 5845 5846 5847 5849 5852 5855 5859 5861 5863 5866 5869 5871 5873 5874 5876 5878 5881 5883 5885 5888 5890 5892 5894 5896 5898 5900 5902 5904 5905 5907 5908 5910 5911 5912 5913 5915 5916 5918 5920 5921 5922 5924 5926 5929 5934 5936 5933 5933 5935 5937 5939 5938 5931 5931 5935 5932 5930 5930 5929 5928 5926 5926 5927 5927 5927 5927 5926 5926 5926 5926 5926 5927 5927 5927 5927
5826 5827 5827 5827 5828 5828 5829 5831 5833 5834 5836 5838 5839 5842 5844 5845 5848 5850 5853 5857 5857 5858 5862 5866 5868 5870 5871 5873 5877 5879 5881 5883 5885 5887 5890 5892 5894 5896 5898 5900 5902 5903 5905 5907 5909 5910 5911 5912 5914 5915 5916 5917 5919 5921 5923 5924 5926 5930 5932 5932 5931 5931 5933 5935 5933 5931 5931 5933 5931 5928 5928 5927 5927 5926 5925 5925 5926 5925 5925 5925 5924 5924 5924 5924 5925 5925 5926 5926
5823 5823 5824 5824 5824 5825 5826 5828 5830 5831 5833 5835 5836 5839 5841 5843 5846 5848 5850 5853 5852 5854 5859 5863 5865 5867 5868 5872 5875 5876 5876 5879 5882 5885 5888 5889 5891 5893 5896 5898 5900 5902 5904 5906 5909 5910 5911 5911 5912 5913 5915 5916 5918 5921 5923 5924 5925 5926 5926 5928 5928 5928 5930 5931 5930 5931 5931 5929 5928 5927 5926 5925 5925 5926 5925 5923 5924 5923 5923 5923 5922 5922 5922 5922 5923 5923 5923 5924
5819 5820 5820 5820 5821 5823 5823 5825 5827 5829 5830 5832 5834 5836 5838 5841 5843 5845 5848 5849 5850 5852 5856 5860 5862 5863 5865 5869 5871 5872 5874 5877 5879 5881 5884 5886 5888 5890 5892 5895 5897 5900 5903 5904 5906 5909 5908 5908 5910 5911 5913 5916 5917 5919 5921 5922 5922 5922 5923 5925 5926 5926 5928 5929 5929 5931 5930 5927 5925 5926 5926 5924 5923 5925 5926 5923 5922 5922 5921 5920 5920 5920 5920 5921 5920 5920 5921 5921
5815 5816 5817 5817 5818 5819 5821 5822 5824 5826 5827 5829 5831 5833 5835 5838 5840 5842 5844 5847 5848 5850 5854 5857 5858 5860 5863 5866 5868 5871 5874 5875 5875 5877 5880 5883 5885 5887 5889 5892 5894 5896 5900 5900 5901 5903 5903 5904 5907 5908 5910 5912 5914 5915 5916 5917 5918 5919 5922 5925 5926 5926 5925 5926 5927 5926 5926 5925 5925 5926 5927 5926 5923 5924 5926 5925 5921 5920 5919 5918 5918 5918 5919 5919 5918 5918 5917 5918
5811 5812 5813 5814 5815 5816 5818 5819 5821 5823 5824 5826 5828 5829 5832 5835 5836 5839 5842 5845 5847 5849 5852 5854 5856 5858 5861 5864 5866 5870 5872 5872 5873 5877 5879 5881 5884 5886 5888 5890 5892 5894 5896 5897 5899 5901 5902 5903 5905 5906 5907 5908 5911 5914 5914 5914 5915 5917 5921 5924 5925 5926 5924 5924 5925 5924 5923 5924 5924 5926 5927 5927 5925 5923 5924 5924 5921 5919 5917 5917 5918 5917 5916 5916 5916 5916 5915 5915
5807 5809 5810 5810 5812 5813 5815 5816 5818 5820 5820 5822 5824 5826 5829 5830 5832 5837 5841 5845 5847 5848 5850 5851 5853 5857 5859 5861 5864 5866 5869 5870 5873 5876 5878 5880 5882 5884 5886 5888 5891 5894 5894 5896 5899 5900 5901 5902 5902 5903 5905 5906 5909 5912 5912 5912 5913 5915 5919 5923 5923 5924 5924 5924 5925 5924 5924 5924 5924 5924 5923 5923 5923 5922 5921 5921 5921 5920 5917 5915 5916 5916 5915 5914 5914 5914 5913 5914
5804 5805 5806 5807 5808 5809 5811 5813 5814 5816 5817 5819 5821 5823 5824 5826 5830 5835 5839 5844 5846 5844 5846 5848 5851 5854 5856 5859 5861 5863 5866 5867 5870 5874 5875 5877 5879 5881 5883 5885 5888 5892 5894 5897 5899 5900 5901 5900 5900 5901 5903 5904 5907 5911 5912 5912 5913 5914 5917 5921 5921 5922 5923 5924 5924 5924 5924 5925 5924 5922 5920 5920 5920 5918 5917 5917 5917 5917 5915 5913 5913 5914 5913 5912 5912 5912 5912 5912
5800 5802 5803 5804 5805 5806 5808 5810 5811 5813 5814 5815 5817 5819 5820 5823 5829 5834 5837 5843 5845 5842 5843 5846 5849 5851 5854 5857 5858 5860 5864 5866 5868 5871 5873 5874 5877 5879 5882 5884 5886 5890 5893 5897 5898 5900 5901 5900 5899 5901 5902 5902 5905 5909 5910 5911 5912 5913 5915 5918 5919 5920 5921 5922 5922 5922 5922 5922 5921 5918 5917 5918 5917 5914 5914 5913 5913 5913 5912 5911 5911 5911 5911 5910 5910 5911 5910 5910
5797 5798 5800 5801 5802 5803 5805 5806 5808 5809 5810 5812 5813 5814 5817 5822 5829 5833 5836 5839 5841 5841 5842 5844 5846 5850 5852 5854 5856 5857 5861 5863 5865 5868 5870 5872 5875 5878 5880 5883 5885 5887 5891 5897 5900 5899 5902 5903 5898 5899 5901 5900 5903 5907 5907 5909 5912 5913 5913 5915 5918 5919 5920 5920 5920 5920 5918 5919 5919 5916 5916 5916 5915 5913 5911 5910 5910 5910 5909 5909 5908 5908 5909 5908 5908 5908 5908 5908
5793 5795 5797 5797 5799 5800 5801 5803 5804 5805 5807 5808 5809 5811 5816 5821 5826 5831 5832 5832 5833 5836 5839 5842 5844 5848 5850 5853 5855 5856 5858 5860 5862 5865 5868 5870 5873 5875 5878 5881 5883 5885 5888 5895 5900 5900 5902 5904 5898 5896 5899 5900 5901 5904 5905 5906 5910 5913 5915 5915 5916 5916 5915 5916 5917 5917 5915 5915 5917 5917 5916 5916 5915 5914 5911 5907 5908 5908 5906 5907 5907 5906 5906 5906 5906 5906 5906 5905
5789 5791 5793 5794 5795 5796 5797 5799 5800 5802 5803 5803 5806 5810 5814 5819 5823 5826 5826 5825 5828 5831 5835 5839 5844 5847 5849 5852 5854 5853 5855 5858 5859 5863 5866 5868 5871 5873 5876 5879 5881 5884 5887 5890 5896 5897 5899 5901 5897 5895 5898 5898 5898 5901 5902 5903 5904 5909 5912 5912 5913 5913 5911 5910 5911 5913 5914 5914 5915 5916 5915 5915 5914 5913 5909 5906 5906 5905 5903 5904 5905 5904 5904 5904 5904 5904 5903 5903
5786 5788 5789 5790 5791 5793 5794 5795 5797 5798 5799 5800 5804 5808 5811 5816 5820 5821 5821 5823 5825 5827 5832 5838 5843 5846 5847 5850 5853 5851 5852 5856 5858 5861 5864 5866 5870 5872 5874 5878 5880 5882 5884 5886 5890 5894 5896 5897 5895 5895 5895 5894 5895 5896 5899 5901 5900 5902 5905 5906 5909 5911 5911 5910 5908 5909 5912 5913 5914 5915 5914 5913 5912 5911 5908 5903 5902 5902 5902 5901 5902 5903 5902 5902 5902 5902 5901 5901
5782 5783 5785 5787 5788 5789 5790 5792 5793 5794 5796 5799 5803 5806 5809 5812 5814 5816 5818 5820 5823 5826 5830 5835 5839 5843 5845 5848 5852 5852 5851 5854 5857 5860 5863 5866 5869 5870 5872 5876 5877 5879 5881 5882 5885 5890 5893 5894 5893 5894 5893 5891 5891 5892 5894 5899 5899 5898 5901 5903 5906 5907 5908 5909 5906 5906 5909 5911 5912 5912 5912 5911 5908 5907 5905 5900 5898 5900 5900 5899 5899 5899 5900 5899 5900 5899 5899 5899
5778 5779 5781 5783 5784 5785 5787 5788 5789 5791 5794 5797 5800 5803 5806 5807 5808 5811 5814 5817 5820 5824 5827 5829 5831 5836 5840 5844 5849 5852 5850 5852 5855 5857 5861 5864 5865 5866 5868 5871 5873 5876 5878 5879 5881 5884 5888 5891 5892 5892 5890 5888 5889 5890 5892 5896 5899 5898 5898 5900 5903 5905 5905 5905 5905 5906 5907 5908 5909 5909 5910 5908 5903 5903 5903 5899 5897 5898 5898 5897 5897 5896 5897 5897 5897 5897 5897 5896
5774 5775 5777 5780 5780 5782 5783 5785 5787 5789 5791 5794 5797 5799 5801 5801 5803 5806 5809 5813 5818 5821 5823 5826 5827 5829 5833 5839 5845 5850 5850 5851 5853 5855 5858 5861 5862 5864 5865 5867 5869 5872 5874 5876 5878 5880 5883 5887 5889 5889 5888 5887 5888 5890 5890 5893 5898 5899 5899 5899 5900 5903 5904 5903 5904 5905 5905 5905 5906 5906 5907 5904 5898 5899 5900 5897 5896 5896 5895 5895 5895 5894 5894 5894 5894 5894 5894 5894
5770 5771 5774 5776 5777 5778 5780 5781 5783 5785 5788 5790 5793 5796 5796 5797 5799 5802 5805 5810 5814 5816 5820 5824 5825 5826 5830 5835 5840 5846 5849 5850 5850 5853 5857 5860 5862 5864 5863 5862 5865 5869 5870 5873 5876 5878 5879 5881 5884 5886 5888 5888 5888 5890 5889 5889 5892 5895 5897 5898 5899 5900 5901 5901 5902 5903 5901 5901 5901 5902 5904 5901 5895 5896 5896 5894 5894 5894 5892 5893 5893 5892 5892 5892 5892 5892 5892 5892
5766 5768 5770 5772 5773 5774 5776 5778 5781 5783 5785 5788 5790 5791 5792 5794 5797 5799 5802 5807 5810 5813 5816 5819 5822 5824 5827 5829 5833 5839 5844 5846 5847 5850 5855 5859 5860 5859 5857 5857 5862 5866 5867 5870 5874 5875 5875 5877 5879 5882 5885 5886 5886 5886 5885 5884 5886 5889 5892 5895 5897 5898 5900 5900 5900 5899 5896 5896 5897 5898 5900 5898 5893 5893 5892 5891 5892 5891 5890 5890 5890 5891 5891 5890 5889 5889 5889 5889
5762 5764 5766 5768 5769 5771 5773 5775 5777 5778 5781 5784 5785 5787 5789 5791 5794 5796 5799 5802 5804 5807 5811 5814 5817 5820 5822 5824 5827 5831 5835 5841 5845 5847 5852 5856 5855 5853 5853 5854 5860 5864 5864 5867 5871 5872 5872 5873 5874 5876 5880 5883 5883 5882 5881 5882 5883 5884 5886 5890 5894 5895 5897 5898 5898 5895 5893 5893 5894 5895 5896 5893 5889 5889 5889 5888 5889 5889 5889 5888 5887 5888 5888 5887 5886 5886 5886 5886
5758 5759 5761 5764 5765 5767 5769 5771 5773 5774 5777 5779 5781 5783 5786 5788 5791 5793 5795 5797 5800 5804 5807 5811 5814 5816 5819 5821 5824 5828 5831 5836 5842 5845 5848 5852 5850 5848 5849 5852 5857 5860 5859 5862 5865 5865 5866 5870 5870 5871 5875 5880 5882 5881 5879 5880 5882 5881 5882 5886 5889 5891 5893 5894 5894 5893 5891 5891 5890 5890 5890 5889 5887 5887 5887 5886 5885 5885 5886 5886 5885 5885 5885 5884 5883 5882 5882 5882
5753 5754 5756 5759 5761 5764 5766 5768 5770 5772 5773 5774 5777 5779 5782 5785 5786 5788 5792 5794 5797 5801 5805 5808 5811 5814 5816 5818 5821 5825 5828 5833 5837 5839 5842 5847 5847 5843 5845 5850 5853 5855 5856 5859 5861 5861 5864 5867 5866 5867 5871 5874 5876 5878 5879 5880 5881 5881 5881 5883 5885 5887 5889 5889 5889 5889 5889 5888 5886 5885 5884 5885 5886 5885 5885 5883 5881 5881 5882 5883 5882 5881 5881 5880 5879 5878 5878 5878
5747 5750 5752 5754 5757 5760 5762 5763 5765 5767 5768 5770 5773 5775 5778 5781 5782 5784 5788 5791 5793 5798 5802 5804 5808 5811 5813 5815 5817 5820 5824 5828 5833 5834 5836 5842 5844 5840 5842 5848 5849 5851 5854 5857 5858 5858 5860 5863 5863 5864 5867 5869 5871 5875 5879 5881 5881 5880 5881 5881 5882 5883 5884 5884 5885 5886 5886 5883 5882 5881 5880 5881 5883 5883 5882 5880 5878 5878 5879 5880 5879 5878 5877 5877 5876 5875 5874 5874
5742 5745 5747 5749 5752 5755 5757 5759 5761 5764 5765 5766 5769 5771 5774 5777 5779 5781 5783 5786 5790 5795 5798 5800 5805 5808 5808 5810 5814 5817 5818 5821 5825 5829 5832 5837 5839 5837 5838 5842 5844 5846 5850 5852 5854 5855 5856 5858 5860 5863 5865 5866 5868 5871 5874 5876 5875 5876 5877 5879 5881 5882 5881 5881 5882 5883 5883 5880 5878 5877 5877 5877 5879 5880 5878 5875 5875 5877 5877 5876 5876 5876 5874 5873 5873 5872 5870 5869
5737 5740 5742 5745 5748 5750 5753 5756 5759 5761 5761 5763 5765 5767 5771 5774 5776 5776 5778 5782 5787 5789 5792 5796 5799 5800 5802 5808 5811 5811 5813 5815 5818 5821 5824 5829 5831 5832 5834 5837 5840 5843 5846 5848 5850 5851 5852 5855 5858 5861 5861 5862 5865 5869 5869 5868 5869 5871 5874 5876 5878 5879 5879 5880 5879 5879 5879 5877 5874 5874 5874 5874 5874 5875 5874 5871 5872 5874 5873 5872 5873 5872 5871 5870 5869 5868 5867 5866
5731 5734 5738 5741 5742 5745 5749 5752 5754 5756 5757 5759 5761 5763 5766 5769 5770 5771 5774 5779 5782 5783 5787 5791 5792 5796 5802 5805 5804 5805 5809 5814 5816 5817 5821 5824 5826 5827 5829 5832 5836 5839 5840 5843 5844 5845 5849 5852 5853 5855 5854 5856 5861 5863 5861 5862 5865 5866 5867 5870 5872 5874 5876 5877 5875 5874 5875 5873 5870 5870 5871 5871 5870 5869 5869 5868 5869 5871 5870 5869 5869 5869 5868 5866 5865 5864 5863 5862
5726 5729 5732 5735 5737 5742 5745 5747 5750 5753 5753 5754 5756 5758 5761 5764 5766 5769 5772 5775 5777 5780 5785 5788 5790 5796 5799 5797 5798 5803 5808 5812 5815 5816 5820 5822 5823 5825 5827 5829 5833 5835 5837 5839 5840 5841 5845 5847 5848 5849 5849 5853 5857 5856 5856 5859 5859 5858 5860 5865 5868 5869 5871 5871 5870 5869 5868 5866 5865 5866 5867 5867 5865 5864 5864 5865 5865 5866 5867 5866 5866 5865 5864 5863 5861 5860 5859 5859